Theta_e
308 305 301 304 308 312 317 320 320 320 324 324 325 331 329 338 343 346 350 353 348 356 355 354 354 353 352 351 350 350 349 348
306 303 306 308 314 314 318 319 321 322 318 325 331 331 334 342 342 345 347 350 353 355 355 354 354 353 351 351 350 350 349 348
303 303 308 311 313 315 316 316 318 321 320 321 330 337 339 342 341 343 344 347 351 356 355 355 355 354 352 351 350 350 350 349
300 303 308 311 314 314 315 317 319 321 323 323 335 337 338 341 342 342 344 347 347 356 355 355 355 353 352 351 350 350 349 349
301 303 305 309 314 312 313 316 319 326 321 326 331 336 340 342 345 345 347 349 349 351 354 355 355 353 352 351 350 349 348 348
303 301 302 309 312 313 314 316 324 327 320 322 331 340 343 342 343 345 346 346 348 350 348 348 348 355 353 352 351 349 349 349
305 303 305 309 310 315 318 318 321 323 324 327 334 339 338 337 337 339 341 347 348 346 348 347 343 345 353 352 351 350 350 349
310 310 306 309 311 313 314 315 319 320 325 325 330 336 334 334 334 335 337 342 346 349 348 348 343 347 351 347 347 345 343 343
312 312 310 308 310 314 313 313 320 319 322 323 325 327 330 332 334 335 339 341 345 350 350 348 346 344 346 347 346 347 346 349
314 315 311 308 311 312 313 314 320 320 322 324 325 326 327 328 329 332 335 338 344 350 351 351 347 345 346 344 347 346 347 353
315 315 315 315 311 313 314 318 320 321 322 324 325 326 329 329 329 331 332 334 337 344 353 352 353 348 349 350 346 348 348 349
312 312 314 311 313 315 317 322 321 322 323 324 323 324 326 328 329 331 333 335 337 340 351 354 354 356 352 351 349 347 347 347
310 312 310 314 309 310 316 318 319 320 321 322 323 325 325 328 329 331 333 337 339 342 346 352 354 354 353 349 349 346 346 351
305 308 310 310 303 312 317 317 316 318 320 320 322 324 326 328 330 333 336 336 339 335 336 345 351 350 348 346 346 346 347 348
300 307 307 305 304 312 315 315 316 317 318 319 321 324 327 328 329 331 335 337 336 341 339 341 349 344 349 353 347 346 347 347
297 304 305 303 303 309 313 312 314 316 317 318 320 321 324 326 328 330 332 336 344 343 347 344 340 344 343 345 346 346 346 347
300 303 302 303 303 306 310 311 312 314 315 316 318 321 323 324 326 328 332 337 344 342 349 342 336 338 340 341 345 345 347 349
299 301 302 301 301 306 308 309 312 312 314 315 317 319 321 323 325 327 331 336 342 343 346 343 339 343 343 344 344 347 348 350
294 299 302 300 299 302 307 310 311 312 313 314 315 315 318 320 322 324 327 334 336 342 344 345 344 345 347 348 346 344 346 347
294 295 291 300 290 300 304 305 307 310 311 313 314 316 317 318 320 324 326 328 333 338 342 343 347 349 351 343 341 343 346 348
Wind_Speed
7 13 15 10 9 11 6 5 5 4 6 7 8 7 2 11 16 18 18 19 20 24 22 22 20 19 19 18 18 18 17 18
12 16 17 15 1 2 4 5 2 5 4 4 4 1 6 16 16 16 18 19 19 23 21 21 20 18 19 19 19 18 18 18
16 21 18 11 14 8 10 9 7 4 7 4 6 5 9 18 15 15 16 16 19 21 19 18 18 17 17 18 18 18 18 17
18 19 17 15 14 13 15 13 11 9 11 7 4 9 12 17 15 13 14 14 15 18 17 18 18 18 17 18 18 18 17 16
20 16 14 15 12 14 15 13 12 6 12 2 7 7 10 14 13 11 12 12 12 16 16 15 17 17 17 18 18 19 18 17
19 17 21 14 11 17 14 14 4 6 9 8 8 7 11 12 13 12 12 12 12 12 16 16 16 15 16 17 17 18 18 18
23 19 12 6 15 16 8 11 9 2 4 6 1 8 11 12 13 11 11 11 11 14 14 15 16 15 16 18 17 16 16 17
18 14 9 16 16 11 7 15 14 9 8 5 5 7 10 12 13 14 14 11 11 12 12 12 12 13 15 15 15 16 16 17
21 15 13 19 19 14 14 16 15 13 10 2 2 2 5 8 9 10 14 11 12 12 12 14 12 9 8 9 11 12 18 15
27 16 12 21 18 24 23 20 18 5 9 12 13 9 7 7 9 10 10 10 10 12 12 14 10 11 11 11 11 11 13 16
24 23 17 18 24 23 23 22 19 19 16 19 17 17 14 12 13 12 11 11 7 9 13 12 14 11 11 11 12 12 12 15
28 20 21 24 28 21 26 22 22 22 22 22 19 17 12 12 13 12 12 12 10 8 11 13 13 14 11 11 12 11 12 13
25 28 28 19 30 37 28 25 24 20 21 21 21 19 17 16 16 15 13 12 11 7 8 12 13 13 11 12 11 11 11 14
33 25 24 22 30 36 27 25 26 27 22 22 23 22 19 16 14 13 12 10 9 9 10 11 11 10 10 11 11 10 10 11
29 28 24 22 37 34 30 22 23 21 21 20 20 18 12 11 12 12 11 10 12 14 15 11 10 10 10 11 10 9 9 10
28 22 27 29 35 28 22 13 24 23 22 21 20 17 14 14 14 14 14 13 14 13 11 10 9 8 8 8 9 9 9 9
20 21 28 29 35 29 27 28 25 23 22 22 22 20 18 16 15 15 15 15 14 14 11 8 7 8 8 10 9 9 8 10
19 17 21 26 31 27 26 28 27 26 25 24 23 21 19 17 16 16 16 14 14 12 11 10 8 8 7 8 8 8 8 10
27 17 22 20 27 26 23 21 20 23 23 24 23 22 22 21 20 18 17 15 13 12 11 11 11 8 7 7 5 8 9 9
24 23 20 21 21 22 24 28 28 27 25 24 23 23 23 23 23 21 20 17 15 11 11 10 12 11 12 10 9 8 9 9
Wind_Direction
228 234 242 244 176 221 176 285 278 227 239 180 226 224 311 101 153 151 160 166 177 176 178 176 181 183 178 177 179 178 179 180
247 235 227 242 77 149 227 306 255 242 205 197 228 225 195 151 156 155 166 172 162 175 183 176 179 186 183 182 184 181 183 186
233 243 246 235 250 276 264 290 270 257 237 240 180 168 152 154 161 164 169 175 166 175 181 179 177 189 188 188 188 186 188 188
240 240 241 243 254 258 261 269 270 239 231 227 110 171 160 160 167 164 168 178 171 176 180 180 177 189 192 194 191 191 192 189
260 267 268 249 239 248 257 264 248 236 215 163 174 133 169 167 162 163 173 182 182 180 184 184 180 187 194 202 197 195 192 192
239 241 250 257 258 247 249 250 54 245 210 160 98 154 164 175 173 175 181 186 187 193 188 195 193 192 197 204 205 203 198 196
242 232 243 238 249 243 249 261 215 285 76 49 115 172 178 179 184 190 195 193 197 194 197 198 205 197 200 208 210 210 206 204
247 258 236 247 252 253 236 223 224 219 139 93 97 180 194 194 200 204 205 199 206 217 206 207 212 210 204 212 211 212 213 207
245 246 244 251 258 246 245 247 221 217 201 196 307 172 217 223 237 219 217 208 202 203 208 212 213 210 216 212 212 213 214 210
260 241 235 249 263 262 251 250 252 203 259 283 283 276 259 271 262 222 230 243 232 209 208 213 219 210 217 221 216 216 211 208
244 254 238 254 248 252 250 247 254 257 256 263 272 269 269 269 266 273 271 257 228 226 209 214 215 224 222 224 223 223 214 206
252 238 245 242 251 252 246 253 254 259 260 259 256 258 267 266 264 262 268 269 270 237 213 211 220 222 231 229 235 224 225 218
248 241 239 245 254 247 247 248 255 254 255 255 256 260 259 255 253 259 261 263 272 245 216 222 226 230 230 241 227 232 221 218
239 232 238 229 254 250 242 232 239 253 253 259 262 262 263 260 248 253 259 255 263 270 270 240 245 244 241 241 235 227 224 215
245 230 222 216 244 252 256 256 241 246 261 258 261 263 259 253 260 248 239 249 262 273 265 255 247 246 241 238 232 225 213 213
259 237 226 223 241 249 259 243 247 244 249 251 254 253 251 250 252 257 264 257 254 260 263 245 249 234 242 229 225 221 210 208
263 249 257 229 241 245 246 255 257 255 255 258 261 266 270 267 267 264 258 256 250 248 241 238 218 222 221 219 210 208 202 195
256 284 252 245 252 250 244 248 251 255 255 263 270 271 272 271 265 258 261 256 257 252 248 227 222 226 231 214 201 197 184 179
254 264 235 250 252 253 247 251 256 257 259 263 266 270 269 269 268 265 257 250 250 251 240 226 232 208 197 172 159 176 179 179
251 243 244 218 257 242 237 241 242 247 252 255 261 262 265 265 263 258 257 254 247 235 228 219 207 202 195 188 171 178 175 148